"Pseudo-MPEC" for C4CR532

Created 2021 Jan 21 10:07:02 UT using Find_Orb

Click here for an explanation of pseudo-MPECs

 
 Astrometry: 
     C4CR532  C2021 01 05.25805706 21 45.26 +15 32 17.0    ~1577 19.24GVNEOCPG96
     C4CR532  C2021 01 05.26320206 21 50.03 +15 33 26.4    ~1577 19.37GVNEOCPG96
     C4CR532  C2021 01 05.26835506 21 54.70 +15 34 33.9    ~1577 18.92GVNEOCPG96
     C4CR532  C2021 01 05.27349406 21 59.22 +15 35 39.2    ~1577 19.33GVNEOCPG96
     C4CR532 KC2021 01 05.29986106 22 21.03 +15 40 49.8    ~157b 19.23GVNEOCPI52
     C4CR532 KC2021 01 05.30487406 22 24.95 +15 41 44.6    ~157b 19.01GVNEOCPI52
     C4CR532  C2021 01 06.24897 06 29 07.95 +16 41 03.1    ~182M 22.1 GVNEOCPG96
     C4CR532  C2021 01 06.25243 06 29 07.90 +16 41 08.4    ~182M       VNEOCPG96

Station data:
(G96) Mt. Lemmon Survey  (N32.442754 W110.788720)  US/Arizona.  Observers T.
   A. Pruyne, B. M. Africano, E. J. Christensen, G. A. Farneth, D. C. Fuls,
   A. R. Gibbs, A. D. Grauer, H. Gröller, J. A. Johnson, R. A. Kowalski, S.
   M. Larson, G. J. Leonard, D. Rankin, R. L. Seaman, F. C. Shelly. 1.5-m
   reflector + 10K CCD.
(I52) Steward Observatory, Mt. Lemmon Station  (N32.442547 W110.788920)
   US/Arizona.  Observers T. A. Pruyne, B. M. Africano, E. J. Christensen, G.
   A. Farneth, D. C. Fuls, A. R. Gibbs, A. D. Grauer, H. Gröller, J. A.
   Johnson, R. A. Kowalski, S. M. Larson, G. J. Leonard, D. Rankin, R. L.
   Seaman, F. C. Shelly. 1.0-m reflector + CCD.

Orbital elements:  C4CR532
   Perihelion 2020 Nov 21.987189 +/- 0.0493794 TT = 23:41:33 (JD 2459175.487189)
Epoch 2021 Jan  6.0 TT = JDT 2459220.5   Earth MOID: 0.0002   Ve: 0.0158
M  13.58251395 +/- 0.1274709        (J2000 ecliptic)          AutoNEOCP
n   0.30174774 +/- 0.00250705       Peri.   78.34031 +/- 0.0032011
a   2.20143920 +/- 0.0121933        Node   284.21296 +/- 0.0009062
e   0.7909776 +/- 0.00138897        Incl.    5.61113 +/- 0.0113829
P   3.27                   H 29.7   G  0.15   U  8.7  
q 0.46015002 +/- 0.00051236    Q 3.94272839 +/- 0.0250316
From 8 observations 2021 Jan. 5-6 (23.9 hr); mean residual 0".14
Residuals in arcseconds: 
210105 G96  .00   .05+    210105 G96  .16-  .26-    210106 G96  .13+  .19-    
210105 G96  .02+  .12+    210105 I52  .14-  .16-    210106 G96  .13-  .19+    
210105 G96  .14+  .04+    210105 I52  .14+  .19+    

Ephemerides (geocentric):
Date (UTC) HH   RA              Dec         delta   r     elong  mag " sig PA
---- -- -- --  -------------   -----------  ------ ------ -----  --- ---- ---
2021 01 21 10  06 34 09.956   +17 19 25.90  .25199 1.2189 156.2 28.1 2.35  57
2021 01 21 11  06 34 10.708   +17 19 28.67  .25265 1.2195 156.2 28.1 2.35  57
2021 01 21 12  06 34 11.461   +17 19 31.45  .25330 1.2200 156.1 28.1 2.34  57
2021 01 21 13  06 34 12.216   +17 19 34.22  .25396 1.2206 156.1 28.1 2.34  57
2021 01 21 14  06 34 12.973   +17 19 37.00  .25462 1.2212 156.0 28.1 2.33  57
2021 01 21 15  06 34 13.732   +17 19 39.77  .25527 1.2218 156.0 28.1 2.33  56
2021 01 21 16  06 34 14.493   +17 19 42.55  .25593 1.2223 156.0 28.1 2.32  56
2021 01 21 17  06 34 15.255   +17 19 45.32  .25659 1.2229 155.9 28.1 2.32  56
2021 01 21 18  06 34 16.020   +17 19 48.10  .25725 1.2235 155.9 28.1 2.31  56
2021 01 21 19  06 34 16.787   +17 19 50.87  .25790 1.2240 155.9 28.1 2.31  56
2021 01 21 20  06 34 17.556   +17 19 53.64  .25856 1.2246 155.8 28.1 2.30  56
2021 01 21 21  06 34 18.326   +17 19 56.42  .25922 1.2252 155.8 28.1 2.30  56
2021 01 21 22  06 34 19.099   +17 19 59.19  .25988 1.2257 155.7 28.2 2.29  56
2021 01 21 23  06 34 19.873   +17 20 01.96  .26054 1.2263 155.7 28.2 2.29  56
2021 01 22 00  06 34 20.650   +17 20 04.74  .26119 1.2269 155.7 28.2 2.28  56
2021 01 22 01  06 34 21.428   +17 20 07.51  .26185 1.2274 155.6 28.2 2.28  56
2021 01 22 02  06 34 22.208   +17 20 10.28  .26251 1.2280 155.6 28.2 2.27  56
2021 01 22 03  06 34 22.991   +17 20 13.06  .26317 1.2286 155.6 28.2 2.27  56
2021 01 22 04  06 34 23.775   +17 20 15.83  .26383 1.2291 155.5 28.2 2.26  56
2021 01 22 05  06 34 24.561   +17 20 18.60  .26449 1.2297 155.5 28.2 2.26  56
2021 01 22 06  06 34 25.349   +17 20 21.37  .26515 1.2303 155.4 28.2 2.25  56
2021 01 22 07  06 34 26.140   +17 20 24.14  .26581 1.2308 155.4 28.2 2.25  56
2021 01 22 08  06 34 26.932   +17 20 26.91  .26647 1.2314 155.4 28.2 2.24  56
2021 01 22 09  06 34 27.726   +17 20 29.68  .26713 1.2320 155.3 28.2 2.23  55
2021 01 22 10  06 34 28.522   +17 20 32.45  .26779 1.2325 155.3 28.2 2.23  55
2021 01 22 11  06 34 29.320   +17 20 35.23  .26845 1.2331 155.3 28.2 2.22  55
2021 01 22 12  06 34 30.120   +17 20 38.00  .26911 1.2337 155.2 28.2 2.22  55
2021 01 22 13  06 34 30.921   +17 20 40.76  .26977 1.2342 155.2 28.3 2.21  55
2021 01 22 14  06 34 31.725   +17 20 43.53  .27043 1.2348 155.1 28.3 2.21  55
2021 01 22 15  06 34 32.531   +17 20 46.30  .27109 1.2354 155.1 28.3 2.20  55
2021 01 22 16  06 34 33.339   +17 20 49.07  .27175 1.2359 155.1 28.3 2.20  55
2021 01 22 17  06 34 34.149   +17 20 51.84  .27241 1.2365 155.0 28.3 2.19  55
2021 01 22 18  06 34 34.960   +17 20 54.61  .27307 1.2371 155.0 28.3 2.19  55
2021 01 22 19  06 34 35.774   +17 20 57.38  .27373 1.2376 155.0 28.3 2.18  55
2021 01 22 20  06 34 36.590   +17 21 00.15  .27440 1.2382 154.9 28.3 2.17  55
2021 01 22 21  06 34 37.407   +17 21 02.91  .27506 1.2388 154.9 28.3 2.17  55
2021 01 22 22  06 34 38.227   +17 21 05.68  .27572 1.2393 154.8 28.3 2.16  55
2021 01 22 23  06 34 39.048   +17 21 08.45  .27638 1.2399 154.8 28.3 2.16  54
2021 01 23 00  06 34 39.872   +17 21 11.21  .27704 1.2405 154.8 28.3 2.15  54
2021 01 23 01  06 34 40.697   +17 21 13.98  .27771 1.2410 154.7 28.3 2.15  54
2021 01 23 02  06 34 41.525   +17 21 16.75  .27837 1.2416 154.7 28.3 2.14  54
2021 01 23 03  06 34 42.354   +17 21 19.51  .27903 1.2422 154.6 28.4 2.13  54
2021 01 23 04  06 34 43.185   +17 21 22.28  .27969 1.2427 154.6 28.4 2.13  54
2021 01 23 05  06 34 44.019   +17 21 25.04  .28036 1.2433 154.6 28.4 2.12  54
2021 01 23 06  06 34 44.854   +17 21 27.81  .28102 1.2439 154.5 28.4 2.12  54
2021 01 23 07  06 34 45.691   +17 21 30.57  .28168 1.2444 154.5 28.4 2.11  54
2021 01 23 08  06 34 46.530   +17 21 33.34  .28235 1.2450 154.5 28.4 2.10  54
2021 01 23 09  06 34 47.372   +17 21 36.10  .28301 1.2455 154.4 28.4 2.10  54